Melfa, VA

1:10 PM EDT on June 29, 2017 (GMT -0400)
Accomack County

Weather History for KMFV - November, 2012

Change the Weather History Date:

Sunday, November 25, 2012

  Actual Average (KWAL) Record (KWAL)
Temperature  
Mean Temperature 40 °F -  
Max Temperature 44 °F 53 °F 76 °F (1973)
Min Temperature 35 °F 37 °F 23 °F (1970)
Degree Days  
Heating Degree Days 26    
Moisture  
Dew Point 23 °F    
Average Humidity 50    
Maximum Humidity 65    
Minimum Humidity 39    
Precipitation  
Precipitation 0.00 in - - ()
Sea Level Pressure  
Sea Level Pressure 30.05 in    
Wind  
Wind Speed 10 mph (West)    
Max Wind Speed 15 mph    
Max Gust Speed 22 mph    
Visibility 10 miles    
Events      
Averages and records for this station are not official NWS values.
T = Trace of Precipitation, MM = Missing Value Source: NWS Daily Summary

Daily Weather History Graph

Daily Weather History Graph

Search for Another Location

Airport or City:

Trip Planner

Search our weather history database for the weather conditions in past years. The results will help you decide how hot, cold, wet, or windy it might be!

Date:

Astronomy

Nov. 25, 2012 Rise Set
Actual Time 6:53 AM EST 4:46 PM EST
Civil Twilight 6:25 AM EST 5:14 PM EST
Nautical Twilight 5:53 AM EST 5:47 PM EST
Astronomical Twilight 5:21 AM EST 6:18 PM EST
Moon 3:00 PM EST (11/25) 4:07 AM EST (11/25)
Length of Visible Light 10h 49m
Length of Day
9h 52m
Waxing Gibbous, 93% of the Moon is Illuminated
Nov 25
Waxing Gibbous
Nov 28
Full
Dec 6
Last Quarter
Dec 13
New
Dec 20
First Quarter

Hourly Weather History & Observations

Time (EST) Temp. Windchill Dew Point Humidity Pressure Visibility Wind Dir Wind Speed Gust Speed Precip Events Conditions
12:15 AM 39.2 °F 32.5 °F 19.4 °F 45% 30.06 in 10.0 mi NNW 10.4 mph 20.7 mph N/A   Mostly Cloudy
12:35 AM 39.2 °F 31.6 °F 19.4 °F 45% 30.05 in 10.0 mi NW 12.7 mph 18.4 mph N/A   Mostly Cloudy
12:56 AM 37.4 °F 30.3 °F 19.4 °F 48% 30.05 in 10.0 mi NNW 10.4 mph 21.9 mph N/A   Mostly Cloudy
1:15 AM 37.4 °F 30.3 °F 19.4 °F 48% 30.04 in 10.0 mi NNW 10.4 mph 16.1 mph N/A   Scattered Clouds
1:35 AM 37.4 °F 30.3 °F 19.4 °F 48% 30.04 in 10.0 mi NW 10.4 mph - N/A   Scattered Clouds
1:55 AM 37.4 °F 30.8 °F 19.4 °F 48% 30.05 in 10.0 mi NNW 9.2 mph 18.4 mph N/A   Scattered Clouds
2:15 AM 37.4 °F 30.3 °F 19.4 °F 48% 30.06 in 10.0 mi NW 10.4 mph 16.1 mph N/A   Scattered Clouds
2:35 AM 37.4 °F 30.3 °F 21.2 °F 52% 30.06 in 10.0 mi NW 10.4 mph - N/A   Scattered Clouds
2:55 AM 37.4 °F 29.3 °F 19.4 °F 48% 30.06 in 10.0 mi NW 12.7 mph 19.6 mph N/A   Clear
3:15 AM 37.4 °F 30.3 °F 19.4 °F 48% 30.07 in 10.0 mi NW 10.4 mph 16.1 mph N/A   Clear
3:35 AM 37.4 °F 30.3 °F 19.4 °F 48% 30.06 in 10.0 mi NW 10.4 mph 17.3 mph N/A   Clear
3:55 AM 37.4 °F 29.3 °F 19.4 °F 48% 30.06 in 10.0 mi NW 12.7 mph 17.3 mph N/A   Clear
4:15 AM 37.4 °F 28.9 °F 19.4 °F 48% 30.07 in 10.0 mi NW 13.8 mph 21.9 mph N/A   Clear
4:35 AM 37.4 °F 28.9 °F 17.6 °F 45% 30.07 in 10.0 mi NW 13.8 mph 20.7 mph N/A   Clear
4:55 AM 37.4 °F 30.3 °F 19.4 °F 48% 30.06 in 10.0 mi NNW 10.4 mph 16.1 mph N/A   Clear
5:15 AM 37.4 °F 29.3 °F 21.2 °F 52% 30.07 in 10.0 mi NW 12.7 mph 20.7 mph N/A   Clear
5:35 AM 37.4 °F 30.8 °F 21.2 °F 52% 30.07 in 10.0 mi NW 9.2 mph - N/A   Clear
5:55 AM 35.6 °F 28.6 °F 23.0 °F 60% 30.07 in 10.0 mi WNW 9.2 mph - N/A   Clear
6:15 AM 37.4 °F 31.4 °F 23.0 °F 56% 30.08 in 10.0 mi WNW 8.1 mph - N/A   Clear
6:35 AM 37.4 °F 31.4 °F 23.0 °F 56% 30.08 in 10.0 mi WNW 8.1 mph - N/A   Clear
6:55 AM 37.4 °F 32.8 °F 23.0 °F 56% 30.09 in 10.0 mi WNW 5.8 mph - N/A   Clear
7:15 AM 35.6 °F 29.2 °F 21.2 °F 56% 30.09 in 10.0 mi WNW 8.1 mph - N/A   Clear
7:35 AM 37.4 °F 33.8 °F 23.0 °F 56% 30.10 in 10.0 mi WNW 4.6 mph - N/A   Clear
7:55 AM 37.4 °F 30.8 °F 23.0 °F 56% 30.10 in 10.0 mi WNW 9.2 mph - N/A   Clear
8:15 AM 39.2 °F 33.0 °F 23.0 °F 52% 30.10 in 10.0 mi NW 9.2 mph - N/A   Clear
8:35 AM 39.2 °F 33.6 °F 24.8 °F 56% 30.10 in 10.0 mi NW 8.1 mph 17.3 mph N/A   Clear
8:56 AM 41.0 °F 35.8 °F 24.8 °F 53% 30.10 in 10.0 mi NW 8.1 mph 17.3 mph N/A   Clear
9:15 AM 41.0 °F 33.5 °F 23.0 °F 49% 30.11 in 10.0 mi NW 13.8 mph 19.6 mph N/A   Clear
9:35 AM 41.0 °F 33.9 °F 21.2 °F 45% 30.12 in 10.0 mi WNW 12.7 mph 18.4 mph N/A   Clear
9:55 AM 41.0 °F 34.3 °F 21.2 °F 45% 30.11 in 10.0 mi WNW 11.5 mph - N/A   Clear
10:15 AM 42.8 °F 35.4 °F 21.2 °F 42% 30.11 in 10.0 mi WNW 15.0 mph - N/A   Clear
10:35 AM 42.8 °F 38.0 °F 21.2 °F 42% 30.09 in 10.0 mi WSW 8.1 mph - N/A   Clear
10:56 AM 42.8 °F 37.0 °F 19.4 °F 39% 30.10 in 10.0 mi WSW 10.4 mph - N/A   Clear
11:15 AM 42.8 °F 37.0 °F 21.2 °F 42% 30.10 in 10.0 mi WSW 10.4 mph - N/A   Clear
11:35 AM 42.8 °F 37.5 °F 21.2 °F 42% 30.08 in 10.0 mi WSW 9.2 mph 17.3 mph N/A   Clear
11:55 AM 42.8 °F 36.6 °F 21.2 °F 42% 30.06 in 10.0 mi WSW 11.5 mph 16.1 mph N/A   Clear
12:15 PM 44.6 °F 39.2 °F 21.2 °F 39% 30.06 in 10.0 mi West 10.4 mph - N/A   Clear
12:35 PM 44.6 °F 40.2 °F 21.2 °F 39% 30.04 in 10.0 mi WSW 8.1 mph - N/A   Clear
12:56 PM 44.6 °F 38.4 °F 21.2 °F 39% 30.04 in 10.0 mi SW 12.7 mph 17.3 mph N/A   Clear
1:15 PM 44.6 °F 38.8 °F 21.2 °F 39% 30.02 in 10.0 mi WSW 11.5 mph 19.6 mph N/A   Clear
1:35 PM 44.6 °F 38.4 °F 23.0 °F 43% 30.02 in 10.0 mi WSW 12.7 mph 19.6 mph N/A   Clear
1:55 PM 44.6 °F 40.2 °F 21.2 °F 39% 30.01 in 10.0 mi West 8.1 mph 18.4 mph N/A   Clear
2:15 PM 44.6 °F 38.8 °F 21.2 °F 39% 30.02 in 10.0 mi WSW 11.5 mph 16.1 mph N/A   Clear
2:35 PM 44.6 °F 38.8 °F 21.2 °F 39% 30.02 in 10.0 mi WSW 11.5 mph 16.1 mph N/A   Clear
2:56 PM 44.6 °F 38.8 °F 21.2 °F 39% 30.01 in 10.0 mi WSW 11.5 mph - N/A   Clear
3:15 PM 44.6 °F 39.2 °F 21.2 °F 39% 30.01 in 10.0 mi WSW 10.4 mph - N/A   Clear
3:35 PM 44.6 °F 39.2 °F 21.2 °F 39% 30.01 in 10.0 mi SW 10.4 mph - N/A   Clear
3:55 PM 44.6 °F 39.7 °F 23.0 °F 43% 30.00 in 10.0 mi SW 9.2 mph - N/A   Clear
4:15 PM 44.6 °F 40.2 °F 23.0 °F 43% 29.99 in 10.0 mi SSW 8.1 mph - N/A   Clear
4:35 PM 42.8 °F 39.3 °F 24.8 °F 49% 29.99 in 10.0 mi SW 5.8 mph - N/A   Clear
4:55 PM 42.8 °F - 24.8 °F 49% 30.00 in 10.0 mi Calm Calm - N/A   Clear
5:15 PM 39.2 °F 35.9 °F 26.6 °F 61% 30.00 in 10.0 mi SW 4.6 mph - N/A   Clear
5:35 PM 39.2 °F 35.9 °F 26.6 °F 61% 30.01 in 10.0 mi SW 4.6 mph - N/A   Clear
5:55 PM 37.4 °F 32.8 °F 26.6 °F 65% 30.01 in 10.0 mi SSW 5.8 mph - N/A   Clear
6:15 PM 37.4 °F 32.1 °F 26.6 °F 65% 30.02 in 10.0 mi SSW 6.9 mph - N/A   Clear
6:35 PM 37.4 °F 32.1 °F 26.6 °F 65% 30.01 in 10.0 mi SSW 6.9 mph - N/A   Clear
6:55 PM 37.4 °F 32.8 °F 24.8 °F 60% 30.02 in 10.0 mi South 5.8 mph - N/A   Clear
7:15 PM 39.2 °F 34.2 °F 24.8 °F 56% 30.02 in 10.0 mi South 6.9 mph - N/A   Clear
7:35 PM 39.2 °F 35.9 °F 24.8 °F 56% 30.02 in 10.0 mi South 4.6 mph - N/A   Clear
7:55 PM 39.2 °F 34.2 °F 24.8 °F 56% 30.03 in 10.0 mi SSW 6.9 mph - N/A   Clear
8:15 PM 39.2 °F 33.6 °F 24.8 °F 56% 30.03 in 10.0 mi SSW 8.1 mph - N/A   Clear
8:35 PM 41.0 °F 36.4 °F 24.8 °F 53% 30.02 in 10.0 mi SSW 6.9 mph - N/A   Clear
8:55 PM 42.8 °F 38.0 °F 24.8 °F 49% 30.03 in 10.0 mi SSW 8.1 mph - N/A   Clear
9:15 PM 41.0 °F 37.1 °F 24.8 °F 53% 30.03 in 10.0 mi South 5.8 mph - N/A   Clear
9:35 PM 41.0 °F 37.1 °F 24.8 °F 53% 30.03 in 10.0 mi South 5.8 mph - N/A   Clear
9:56 PM 39.2 °F 35.9 °F 24.8 °F 56% 30.03 in 10.0 mi South 4.6 mph - N/A   Unknown
10:15 PM 39.2 °F 35.9 °F 26.6 °F 61% 30.03 in 10.0 mi South 4.6 mph - N/A   Clear
10:35 PM 39.2 °F 35.0 °F 26.6 °F 61% 30.03 in 10.0 mi South 5.8 mph - N/A   Clear
10:55 PM 39.2 °F 35.9 °F 26.6 °F 61% 30.02 in 10.0 mi SSW 4.6 mph - N/A   Clear
11:15 PM 37.4 °F 32.8 °F 26.6 °F 65% 30.02 in 10.0 mi SSW 5.8 mph - N/A   Clear
11:35 PM 39.2 °F 33.6 °F 28.4 °F 65% 30.02 in 10.0 mi SW 8.1 mph - N/A   Clear
11:55 PM 42.8 °F 37.5 °F 28.4 °F 57% 30.03 in 10.0 mi SW 9.2 mph - N/A   Clear